Date,TemperatureHighF,TemperatureAvgF,TemperatureLowF,DewpointHighF,DewpointAvgF,DewpointLowF,HumidityHigh,HumidityAvg,HumidityLow,PressureMaxIn,PressureMinIn,WindSpeedMaxMPH,WindSpeedAvgMPH,GustSpeedMaxMPH,PrecipitationSumIn
2013-1-1,20.7,14.2,7.3,10.6,6.2,2.9,82,70,55,30.34,30.19,6,1,11,0.00
2013-1-2,30.9,18.8,7.1,20.1,11.4,2.1,83,73,61,30.27,30.11,3,1,8,0.00
2013-1-3,29.2,23.6,11.0,24.5,17.5,5.6,87,78,59,30.39,30.15,7,1,17,0.00
2013-1-4,34.3,21.9,9.4,24.3,15.8,5.0,83,78,66,30.37,30.25,6,2,13,0.00
2013-1-5,35.7,29.2,20.5,33.1,25.6,16.4,93,86,77,30.26,29.99,8,2,16,0.02
2013-1-6,32.8,23.1,17.4,27.4,17.4,12.7,87,79,65,30.37,30.00,10,3,21,0.00
2013-1-7,39.5,29.2,19.3,27.3,21.7,14.4,84,74,56,30.35,30.10,9,2,19,0.00
2013-1-8,44.6,35.7,28.7,31.3,27.2,22.9,84,72,56,30.14,30.02,7,2,14,0.00
2013-1-9,47.4,36.5,27.8,34.0,29.4,24.7,92,76,55,30.51,30.06,6,1,16,0.00
2013-1-10,42.3,36.0,27.8,41.6,29.5,-99.9,99,80,53,30.48,29.78,5,1,11,0.77
2013-1-11,54.4,48.5,42.3,51.4,45.9,42.0,100,91,77,29.80,29.63,9,4,17,0.17
2013-1-12,51.6,35.6,20.4,46.0,29.8,17.7,90,80,68,30.03,29.67,8,2,16,0.00
2013-1-13,20.4,15.3,7.7,17.7,9.1,2.9,89,76,66,30.34,29.96,9,2,16,0.00
2013-1-14,25.8,13.2,5.4,10.7,6.2,1.5,86,75,51,30.53,30.33,0,0,1,0.08
2013-1-15,29.7,16.4,7.3,14.4,9.1,4.0,89,74,47,30.47,30.17,0,0,0,0.03
2013-1-16,36.2,25.5,11.3,28.2,17.5,6.8,88,72,55,30.17,29.91,8,1,14,0.02
2013-1-17,33.8,27.1,18.6,29.9,16.5,-99.9,87,69,48,30.46,30.10,5,1,8,0.00
2013-1-18,48.2,35.0,18.6,33.0,24.6,14.5,85,67,50,30.45,29.96,10,3,21,0.02
2013-1-19,52.9,41.2,25.4,36.9,30.8,11.1,75,67,50,30.14,29.79,17,4,24,0.00
2013-1-20,25.0,16.1,12.2,11.5,7.9,4.3,81,70,52,30.38,30.14,14,3,24,0.00
2013-1-21,12.3,6.6,2.4,6.2,-3.1,-7.9,76,64,46,30.42,30.30,14,7,22,0.00
2013-1-22,14.3,7.5,-1.0,0.2,-4.6,-99.9,71,58,44,30.50,30.39,6,2,15,0.00
2013-1-23,32.9,19.7,11.8,15.8,6.7,-0.4,66,57,43,30.43,30.13,10,2,21,0.00
2013-1-24,21.3,14.2,5.2,7.8,-0.1,-99.9,68,53,39,30.68,30.31,8,2,13,0.00
2013-1-25,38.5,26.0,16.9,19.7,12.0,4.3,70,55,40,30.30,30.03,6,2,22,0.00
2013-1-26,31.3,20.7,8.0,14.4,7.8,2.3,78,58,40,30.43,30.28,3,0,10,0.00
2013-1-27,43.2,31.5,26.7,42.9,26.1,14.6,99,81,59,30.34,29.85,6,2,13,0.29
2013-1-28,55.6,47.7,43.0,55.6,47.3,42.7,100,98,95,29.93,29.70,8,3,17,0.02
2013-1-29,61.0,53.3,37.3,57.7,51.9,36.8,99,95,88,29.70,29.41,9,4,16,1.05
2013-1-30,37.3,27.9,15.6,36.8,25.7,9.4,100,91,75,29.82,29.28,17,6,26,0.29
2013-1-31,19.9,11.0,2.9,15.3,4.1,-5.6,84,73,65,30.35,29.83,14,8,28,0.00
2013-2-1,20.5,8.5,-1.4,16.4,-0.4,-9.1,84,67,56,30.48,30.19,13,3,19,0.00
2013-2-2,26.0,20.6,16.1,21.9,14.4,7.9,89,77,64,30.19,30.05,5,1,13,0.00
2013-2-3,27.9,22.1,16.9,20.7,14.9,11.9,92,74,56,30.15,29.98,12,2,19,0.00
2013-2-4,33.7,25.9,18.0,24.0,18.7,13.9,84,74,64,30.00,29.80,8,1,14,0.01
2013-2-5,39.0,29.4,17.5,30.0,23.6,13.2,88,79,67,30.10,29.86,8,2,12,0.00
2013-2-6,42.3,31.6,20.4,31.9,26.4,18.4,95,82,64,30.21,30.01,6,2,11,0.00
2013-2-7,36.4,35.0,31.9,35.9,33.6,30.4,98,95,85,30.06,29.86,5,2,10,0.75
2013-2-8,31.9,28.1,25.5,30.4,23.3,21.0,94,82,76,30.39,30.07,4,1,9,0.00
2013-2-9,35.6,30.2,25.5,29.8,25.1,21.3,88,81,71,30.39,30.00,7,3,13,0.00
2013-2-10,48.9,41.0,34.0,46.6,37.5,29.4,97,88,61,30.02,29.41,10,5,29,0.47
2013-2-11,37.9,32.1,28.4,29.7,23.2,21.2,78,69,64,30.13,29.60,15,6,30,0.01
2013-2-12,39.3,31.0,26.7,26.1,23.4,21.1,88,74,53,30.15,29.93,4,1,10,0.00
2013-2-13,45.9,34.5,24.8,31.3,27.4,22.3,91,76,54,29.93,29.73,4,1,11,0.00
2013-2-14,39.2,35.8,30.7,31.5,29.4,26.1,89,78,66,30.04,29.69,11,3,18,0.00
2013-2-15,33.2,25.5,19.1,26.1,14.2,8.8,86,63,39,30.27,30.05,10,4,19,0.00
2013-2-16,28.4,19.8,10.8,14.0,9.9,5.1,79,66,53,30.27,30.17,10,2,14,0.00
2013-2-17,36.2,25.3,13.2,22.8,14.7,6.6,77,65,47,30.22,29.87,7,1,17,0.00
2013-2-18,52.2,38.4,24.1,45.1,31.8,21.3,96,78,59,29.87,29.47,10,3,21,0.50
2013-2-19,22.6,15.5,9.4,13.2,7.6,2.1,82,71,60,30.33,29.84,13,5,19,0.00
2013-2-20,21.3,12.7,2.6,10.7,4.5,-3.9,78,69,59,30.48,30.34,6,1,9,0.13
2013-2-21,28.1,12.6,12.2,21.8,-25.8,-99.9,83,51,74,30.39,29.88,12,-242,12,0.00
2013-2-22,29.2,0.5,27.5,-99.9,-99.9,-99.9,0,0,100,29.99,29.72,13,-604,13,0.00
2013-2-23,63.9,8.9,17.4,19.7,-61.6,-99.9,81,26,65,30.02,29.91,6,-425,10,0.03
2013-2-24,38.5,14.8,13.0,23.9,-33.8,-99.9,90,45,55,30.13,30.00,5,-11,6,0.00
2013-2-25,42.7,11.0,25.7,31.4,-75.3,-99.9,73,12,55,30.12,29.83,7,-252,8,0.00
2013-2-26,31.2,1.1,31.2,-99.9,-99.9,-99.9,0,0,100,29.83,29.47,14,-531,14,0.06
2013-2-27,31.3,7.5,28.7,28.8,-89.3,-99.9,97,8,11,29.83,29.59,7,-171,7,0.00
2013-2-28,32.5,7.2,30.0,31.5,-91.8,-99.9,96,6,95,30.09,29.78,6,-182,8,0.26
2013-3-1,28.2,6.4,23.6,21.8,-90.5,-99.9,91,9,81,30.26,30.04,11,-84,17,0.08
2013-3-2,30.9,11.8,13.8,16.9,-67.5,-99.9,73,17,54,30.28,30.12,7,-93,10,0.01
2013-3-3,-200.0,0.0,200.0,-99.9,-99.9,-99.9,0,0,100,30.22,30.07,1,-391,2,0.00
2013-3-4,29.1,0.9,29.1,-99.9,-99.9,-99.9,0,0,100,29.97,29.82,12,-401,15,0.00
2013-3-5,28.8,4.7,27.5,25.4,-93.7,-99.9,87,4,87,30.11,29.92,17,-224,17,0.00
2013-3-6,28.8,15.4,20.4,23.1,-38.3,-99.9,85,40,71,30.38,30.09,7,-24,13,0.05
2013-3-7,22.6,0.3,22.6,-99.9,-99.9,-99.9,0,0,100,30.40,30.31,7,-149,7,0.00
2013-3-8,-200.0,0.0,200.0,-99.9,-99.9,-99.9,0,0,100,30.38,30.17,10,-775,10,0.00
2013-3-9,-200.0,0.0,200.0,-99.9,-99.9,-99.9,0,0,100,30.17,29.74,13,-879,13,0.00
2013-3-10,49.3,0.8,49.3,-99.9,-99.9,-99.9,0,0,100,29.77,29.50,9,-755,9,0.00
2013-3-11,-200.0,0.0,200.0,-99.9,-99.9,-99.9,0,0,100,29.68,29.57,13,-740,13,0.00
2013-3-12,-200.0,0.0,200.0,-99.9,-99.9,-99.9,0,0,100,30.10,29.97,10,-908,10,0.00
2013-3-13,25.0,0.2,25.0,-99.9,-99.9,-99.9,0,0,100,30.38,30.10,14,-826,14,0.00
2013-3-14,72.1,19.7,67.8,38.6,-81.8,-99.9,30,4,29,30.32,30.01,10,-651,10,0.00
2013-3-15,72.2,34.6,68.8,40.8,-49.5,-99.9,33,11,32,30.02,29.70,2,-706,2,0.00
2013-3-16,72.7,72.3,71.9,41.8,40.9,40.4,33,32,32,29.96,29.70,7,-793,10,0.00
2013-3-18,30.0,25.3,23.8,17.8,10.4,-99.9,66,62,61,29.96,29.83,16,13,22,0.00
2013-3-19,39.3,25.3,17.7,17.0,-1.8,-99.9,66,47,33,30.19,29.93,20,-133,20,0.00
2013-3-20,27.5,17.0,14.2,18.0,-38.6,-99.9,72,31,39,30.25,30.07,20,-464,22,0.00
2013-3-21,44.6,12.5,14.0,19.9,-72.6,-99.9,59,11,26,30.14,29.96,3,-767,3,0.00
2013-3-22,45.1,19.3,22.3,20.8,-78.2,-99.9,62,8,34,30.07,29.94,1,-586,1,0.00
2013-3-23,46.4,19.0,29.1,24.8,-74.6,-99.9,75,16,41,30.10,29.92,7,-650,7,0.00
2013-3-24,31.6,17.7,28.5,29.8,-51.1,-99.9,94,35,91,29.99,29.66,11,-681,11,0.00
2013-3-25,35.3,28.9,33.2,25.8,5.6,-99.9,71,58,68,30.10,30.02,10,-311,10,0.04
2013-3-26,38.3,20.4,34.4,25.6,-44.7,-99.9,70,28,58,30.31,30.22,7,-673,7,0.00
2013-3-27,44.0,27.7,29.4,29.2,-21.8,-99.9,80,39,46,30.38,30.28,2,-458,3,0.00
2013-3-28,52.0,21.0,26.6,40.9,-40.4,-99.9,82,34,40,30.38,30.24,1,-541,3,0.00
2013-3-29,48.8,2.0,48.8,-99.9,-99.9,-99.9,0,0,100,30.28,30.17,0,-916,3,0.00
2013-3-30,56.1,45.5,39.3,43.3,31.3,-99.9,86,65,51,30.20,29.88,8,-39,17,0.00
2013-3-31,56.9,43.3,36.9,43.6,31.3,24.2,96,64,35,29.96,29.80,10,2,17,0.00
2013-4-1,40.9,33.2,25.5,23.8,18.4,12.9,79,56,34,30.26,29.97,8,2,14,0.00
2013-4-2,49.3,33.0,20.8,21.0,16.0,9.1,80,53,25,30.35,30.26,7,1,18,0.00
2013-4-3,50.2,37.6,26.1,20.2,15.5,12.5,65,44,22,30.45,30.30,2,0,8,0.00
2013-4-5,58.0,48.7,33.4,30.8,25.3,20.8,79,43,24,30.19,30.01,3,0,10,0.00
2013-4-6,69.3,56.5,44.8,51.0,33.7,-99.9,77,44,27,30.01,29.59,14,5,27,0.00
2013-4-7,71.2,53.2,38.3,44.0,40.6,35.3,92,65,34,29.93,29.70,4,0,11,0.00
2013-4-8,76.4,60.1,52.9,57.5,43.4,-99.9,96,68,47,29.82,29.53,11,3,25,0.00
2013-4-9,75.9,64.4,58.0,60.7,56.8,53.8,88,77,54,29.81,29.72,10,3,17,0.00
2013-4-10,48.9,44.1,41.9,44.5,41.8,40.6,96,92,84,29.83,29.65,10,4,13,0.23
2013-4-11,47.9,43.7,37.9,45.0,38.4,-99.9,98,86,71,29.65,29.59,7,2,13,0.00
2013-4-12,42.5,39.1,36.9,35.5,32.4,29.5,88,77,66,29.92,29.61,7,3,25,0.00
2013-4-13,51.1,43.1,34.4,35.0,29.8,22.7,81,60,44,30.00,29.91,5,2,17,0.01
2013-4-14,74.3,59.2,44.6,53.8,42.3,-99.9,78,56,33,29.92,29.51,14,4,32,0.21
2013-4-15,62.3,52.4,41.6,55.5,47.3,37.4,100,84,50,29.99,29.61,7,1,13,0.37
2013-4-16,50.5,44.4,35.6,39.9,34.9,-99.9,88,71,53,30.19,29.96,4,1,9,0.00
2013-4-17,57.5,46.4,42.2,56.7,42.0,34.0,99,85,66,30.19,29.66,10,2,20,1.64
2013-4-18,62.5,51.1,37.2,60.6,48.4,-99.9,100,92,75,29.71,29.38,14,5,22,2.19
2013-4-19,39.3,36.4,34.3,32.3,28.2,-99.9,83,73,64,30.03,29.61,12,8,24,0.00
2013-4-20,49.2,38.5,27.6,32.4,26.0,19.9,88,63,35,30.35,30.03,8,0,14,0.00
2013-4-21,58.0,47.2,36.7,40.4,33.6,27.2,73,60,47,30.42,30.22,10,4,21,0.00
2013-4-22,67.5,56.2,43.3,49.3,37.6,-99.9,83,53,27,30.25,29.95,6,2,14,0.03
2013-4-23,54.2,42.7,37.2,50.0,40.1,34.7,96,91,83,30.03,29.90,6,2,11,0.47
2013-4-24,51.1,42.3,34.4,35.0,31.4,25.5,92,68,38,30.14,30.00,7,3,13,0.05
2013-4-25,56.0,46.5,36.3,35.9,31.1,27.6,84,57,35,30.30,30.11,11,3,19,0.02
2013-4-26,63.9,53.6,42.7,46.4,40.0,31.2,79,61,45,30.28,30.20,10,3,21,0.00
2013-4-27,62.5,53.2,43.7,49.6,45.1,41.7,96,75,49,30.25,29.96,5,1,10,0.00
2013-4-28,71.7,59.4,50.1,52.3,49.3,46.0,92,71,44,29.96,29.79,3,0,8,0.00
2013-4-29,78.0,62.9,48.0,59.2,52.7,46.0,93,72,48,29.86,29.65,8,3,18,0.00
2013-4-30,84.9,73.5,62.0,59.7,54.4,46.2,88,55,27,29.84,29.65,9,4,24,0.00
2013-5-1,83.0,73.8,60.9,55.1,51.2,44.0,71,48,27,30.06,29.84,5,2,16,0.00
2013-5-2,60.7,52.3,41.3,50.0,43.7,37.6,92,73,58,30.17,30.04,7,3,13,0.04
2013-5-3,55.3,43.9,39.0,54.8,43.0,37.6,99,97,92,30.12,29.80,7,3,16,1.59
2013-5-4,64.1,57.3,53.9,56.7,54.8,52.2,97,91,69,30.01,29.82,4,0,11,0.20
2013-5-5,73.8,60.5,49.6,55.6,49.9,39.6,99,73,32,30.01,29.89,5,1,11,0.00
2013-5-6,74.5,64.7,54.8,53.2,47.4,40.6,84,57,30,30.01,29.92,6,1,13,0.00
2013-5-7,79.5,67.9,52.2,48.0,41.6,35.6,72,41,22,30.01,29.93,1,0,5,0.00
2013-5-8,82.0,68.1,51.0,55.8,47.2,41.9,83,52,25,29.99,29.91,1,0,6,0.00
2013-5-9,68.7,63.2,59.6,61.2,57.8,54.8,97,83,72,29.94,29.85,2,0,7,0.28
2013-5-11,44.0,42.5,40.7,29.1,28.6,28.0,62,58,53,30.12,30.10,0,0,0,0.00
2013-5-12,58.1,46.7,33.8,33.3,28.7,24.4,83,53,29,30.20,30.10,5,1,12,0.00
2013-5-13,70.9,55.0,36.0,40.9,34.3,28.6,86,51,23,30.18,29.93,2,0,10,0.00
2013-5-14,91.9,73.0,54.5,61.1,52.5,39.8,73,51,29,29.93,29.62,7,2,14,0.00
2013-5-15,81.4,73.7,63.6,61.2,53.8,45.9,69,51,30,29.81,29.67,5,1,11,0.01
2013-5-16,82.8,70.7,58.0,61.0,53.8,45.3,94,59,29,29.90,29.79,2,0,6,0.06
2013-5-17,79.3,71.4,59.8,62.7,58.0,50.8,87,65,39,29.93,29.84,3,0,8,0.00
2013-5-18,81.6,71.9,63.7,64.9,61.9,59.5,94,72,50,29.96,29.83,3,0,11,0.00
2013-5-19,87.2,73.4,63.4,69.6,64.1,56.2,89,74,50,29.85,29.62,7,2,17,18.77
2013-5-20,81.6,69.7,61.0,65.4,59.8,-99.9,95,75,46,29.75,29.56,8,2,18,1.14
2013-5-21,79.2,69.5,60.9,62.9,59.6,56.8,95,73,48,29.67,29.61,5,-90,11,0.00
2013-5-22,72.2,63.9,58.3,57.9,55.1,52.4,88,74,51,29.78,29.59,5,2,11,0.01
2013-5-23,65.2,58.0,53.2,55.0,51.1,45.4,96,79,51,30.24,29.77,7,-4,11,0.04
2013-5-24,66.5,55.9,42.5,47.9,39.9,33.8,91,58,30,30.43,30.24,1,-79,5,0.00
2013-5-25,57.4,51.1,45.8,48.5,43.3,36.6,95,76,53,30.38,30.21,2,0,10,0.41
2013-5-26,65.2,55.4,49.8,57.8,52.5,46.7,97,90,76,30.24,29.99,3,0,7,1.92
2013-5-27,70.5,62.9,57.8,65.5,60.4,55.8,99,92,80,30.00,29.74,2,-25,8,0.07
2013-5-28,68.0,65.2,63.3,67.1,63.8,61.3,97,95,93,29.85,29.77,6,2,9,3.20
2013-5-29,83.9,75.0,61.8,69.0,64.4,59.5,95,71,56,29.83,29.73,5,-364,10,0.64
2013-5-30,83.0,72.0,61.8,69.1,64.1,59.0,96,77,59,29.80,29.67,9,-403,19,0.72
2013-5-31,72.4,65.6,61.7,68.0,63.0,57.6,96,91,79,29.83,29.65,4,-390,11,0.30
2013-6-1,76.6,67.2,61.5,66.5,61.2,55.5,95,82,50,29.77,29.65,7,-660,8,0.00
2013-6-2,61.8,58.9,53.2,58.1,51.6,44.4,88,77,59,30.03,29.77,3,1,10,0.00
2013-6-3,68.0,59.0,47.3,50.0,46.7,42.0,95,66,42,30.12,29.99,2,-43,6,0.00
2013-6-4,72.7,63.9,52.7,55.0,49.9,45.5,82,62,43,30.11,29.97,3,0,6,0.00
2013-6-5,75.4,65.7,58.3,59.7,55.9,52.8,93,72,49,30.01,29.85,3,0,5,0.05
2013-6-6,69.2,61.6,56.6,59.6,57.0,54.9,97,85,68,29.89,29.83,2,-60,3,0.11
2013-6-7,70.9,62.8,53.0,55.8,52.9,49.2,92,71,51,29.93,29.87,2,-127,6,0.00
2013-6-8,76.6,66.1,54.8,55.1,51.5,47.5,84,61,43,29.94,29.86,3,0,8,0.00
2013-6-9,75.9,67.9,62.6,64.0,58.8,52.6,87,73,60,29.89,29.73,6,-317,7,0.00
2013-6-10,78.0,71.7,64.1,60.9,59.3,57.9,84,66,54,29.85,29.80,1,-793,6,0.00
2013-6-11,85.3,72.8,59.3,72.0,63.8,57.0,94,75,59,29.90,29.74,2,-94,8,0.00
2013-6-12,93.4,81.2,71.5,71.9,68.5,64.4,86,67,43,29.82,29.56,6,-56,14,0.11
2013-6-13,82.8,73.9,65.0,63.9,56.8,50.9,88,58,35,29.97,29.65,4,-248,10,0.00
2013-6-14,79.9,70.6,59.8,58.9,55.8,52.1,80,61,42,30.09,29.91,0,-233,2,0.00
2013-6-15,78.8,70.7,65.7,70.6,64.7,57.8,95,82,66,29.99,29.81,7,-398,10,0.87
2013-6-16,81.6,71.4,63.4,68.8,65.1,62.2,97,82,58,29.93,29.86,1,-5,4,0.00
2013-6-17,87.6,76.0,62.6,68.1,62.3,53.5,96,67,32,29.92,29.84,2,-77,4,0.00
2013-6-18,79.9,71.4,63.3,61.7,59.1,54.7,89,67,45,29.99,29.83,1,-137,5,0.00
2013-6-19,83.5,70.8,56.6,60.1,54.7,48.8,79,59,37,30.07,29.99,0,-12,1,0.00
2013-6-20,88.7,77.7,65.2,65.3,60.7,55.6,76,58,35,30.07,29.97,2,0,13,0.00
2013-6-21,88.4,76.6,69.3,72.8,66.5,62.1,89,71,55,30.06,29.87,9,-230,16,0.08
2013-6-22,92.3,79.7,72.4,74.9,70.3,63.3,85,74,53,30.00,29.87,5,-446,14,0.00
2013-6-23,89.9,74.5,68.2,72.6,65.6,61.8,87,75,52,29.98,29.82,5,-129,10,0.00
2013-6-24,86.8,71.5,66.7,72.0,65.7,62.2,94,83,59,30.07,29.83,5,-502,8,0.63
2013-6-25,87.2,77.0,68.7,74.1,69.9,65.6,93,80,61,29.87,29.75,5,-210,9,0.02
2013-6-26,87.2,76.6,65.8,73.5,70.2,63.6,96,82,62,29.80,29.67,3,-507,15,0.59
2013-6-27,89.3,78.1,70.2,72.5,68.3,64.4,94,74,48,29.81,29.72,8,-583,10,0.00
2013-6-28,83.9,74.4,65.2,64.6,60.5,56.0,89,64,40,29.77,29.63,6,-325,20,0.00
2013-6-29,71.5,66.1,62.6,66.6,62.0,59.2,94,87,74,29.76,29.60,3,-133,5,0.44
2013-6-30,77.1,68.1,60.6,61.8,59.3,56.9,93,75,51,29.90,29.76,5,-58,8,0.00
2013-7-1,78.0,69.9,59.5,54.8,50.2,45.3,69,51,32,30.03,29.96,4,-168,8,0.00
2013-7-2,77.5,68.1,58.6,55.5,52.2,48.8,77,58,40,30.05,29.98,2,0,12,0.00
2013-7-3,79.2,67.9,56.1,57.3,52.5,46.3,88,61,32,30.05,29.98,1,0,6,0.00
2013-7-4,85.5,73.5,62.5,64.4,59.0,53.2,88,63,37,30.04,29.96,2,-62,9,0.00
2013-7-5,85.3,75.2,64.6,65.6,60.7,55.5,88,63,37,30.02,29.95,3,-149,9,0.00
2013-7-6,86.6,75.2,65.4,68.1,64.0,60.2,89,70,44,30.00,29.91,3,-325,10,0.00
2013-7-7,90.4,79.2,68.0,70.1,66.6,62.1,86,67,44,29.95,29.90,4,-499,8,0.00
2013-7-8,87.8,78.7,70.5,73.2,70.6,68.1,94,77,60,29.98,29.90,8,-383,12,0.73
2013-7-9,87.8,81.9,76.6,75.9,73.2,70.6,88,76,60,29.95,29.82,3,-646,7,0.00
2013-7-10,87.0,79.0,68.0,73.6,66.5,58.6,88,67,44,29.98,29.80,4,-542,11,0.00
2013-7-11,78.4,67.8,62.1,61.6,57.9,53.8,86,72,43,30.06,29.98,0,-320,0,0.00
2013-7-12,83.0,72.1,58.6,58.7,54.9,51.1,87,58,36,30.11,30.02,3,-138,10,0.00
2013-7-13,83.2,74.0,61.4,62.3,58.8,55.4,82,60,44,30.10,30.01,1,-51,5,0.00
2013-7-14,88.0,77.6,68.2,67.2,64.1,61.0,84,65,45,30.12,30.05,3,-539,7,0.00
2013-7-15,91.0,80.7,72.1,72.8,70.0,67.3,88,71,51,30.19,30.12,3,-608,7,0.00
2013-7-16,91.5,82.3,74.3,74.3,72.0,70.4,92,72,52,30.25,30.17,3,-640,7,0.00
2013-7-17,94.5,83.5,73.8,74.6,71.1,69.0,88,68,44,30.27,30.13,3,-676,7,0.00
2013-7-18,94.5,84.9,75.4,74.8,71.8,67.7,87,67,44,30.15,29.92,3,-627,7,0.00
2013-7-19,95.5,85.6,76.2,72.8,69.7,65.7,80,61,38,29.92,29.75,6,-634,14,0.00
2013-7-20,87.2,79.3,72.2,70.1,63.6,57.9,76,60,39,29.88,29.78,1,-410,9,0.00
2013-7-21,80.5,74.6,68.7,71.8,67.3,63.3,93,78,66,29.89,29.80,2,0,3,0.02
2013-7-22,88.4,76.2,65.0,72.0,68.0,62.7,97,78,55,29.84,29.71,8,1,8,0.11
2013-7-23,78.0,70.1,63.6,67.5,62.1,57.1,94,77,57,29.91,29.71,1,0,1,0.01
2013-7-24,75.5,66.2,58.0,56.8,54.7,51.5,92,68,46,30.03,29.91,1,0,4,0.00
2013-7-25,81.8,70.4,58.0,60.0,56.9,53.1,85,64,44,30.07,29.99,2,0,6,0.00
2013-7-26,77.3,48.4,59.8,69.5,-15.7,-99.9,97,44,71,29.99,29.85,4,-105,8,0.77
2013-7-27,66.5,60.0,55.1,57.9,4.8,-99.9,94,55,49,29.97,29.91,5,1,10,0.00
2013-7-28,72.7,61.9,52.0,56.8,28.0,-99.9,84,60,50,30.03,29.92,7,1,8,0.00
2013-7-29,77.3,64.4,51.9,62.9,32.8,-99.9,92,56,42,30.13,30.03,2,-78,4,0.00
2013-7-30,68.5,65.3,62.5,67.3,55.1,-99.9,97,84,62,30.10,29.99,2,0,6,0.13
2013-7-31,76.6,68.3,65.7,68.5,52.9,-99.9,98,82,68,30.02,29.95,2,-91,6,0.02
2013-8-1,79.7,66.5,71.5,62.3,24.7,-99.9,70,45,51,29.94,29.89,157,-779,157,0.00
2013-8-2,85.7,68.8,67.8,69.3,-19.7,-99.9,90,33,28,29.93,29.82,4,-549,10,0.00
2013-8-3,80.1,67.2,63.7,64.4,37.6,-99.9,89,59,44,30.11,29.93,2,-573,5,0.00
2013-8-4,80.5,62.9,62.9,61.3,18.2,-99.9,82,43,41,30.16,30.05,1,-285,3,0.00
2013-8-5,75.9,59.2,62.0,66.9,15.5,-99.9,90,56,69,30.06,29.82,4,0,9,0.00
2013-8-6,87.4,75.8,66.3,73.9,69.3,64.8,97,82,59,29.86,29.76,2,-56,7,0.00
2013-8-7,87.4,77.4,68.5,74.5,64.0,-99.9,92,75,54,29.91,29.74,2,-479,8,0.00
2013-8-8,78.8,63.2,65.4,65.1,-1.7,-99.9,88,44,63,29.97,29.90,1,-446,6,0.00
2013-8-9,83.2,66.1,63.1,66.3,30.1,-99.9,89,57,50,30.02,29.95,2,-221,7,0.00
2013-8-10,81.2,47.6,58.9,61.7,-24.8,-99.9,89,26,41,30.13,30.02,1,-113,6,0.00
2013-8-11,84.7,37.0,60.9,65.1,-24.4,-99.9,85,30,47,30.12,29.99,3,0,11,0.00
2013-8-12,80.3,57.6,65.5,69.0,11.7,-99.9,86,54,66,30.02,29.88,42,-601,42,0.00
2013-8-13,72.6,47.2,58.0,58.8,-18.2,-99.9,90,38,43,30.12,29.93,3,-91,8,0.07
2013-8-14,74.5,51.8,49.9,56.5,1.8,-99.9,91,37,36,30.20,30.10,3,-148,3,0.00
2013-8-15,75.4,62.9,58.0,57.7,39.6,-99.9,85,62,42,30.16,30.08,2,0,6,0.00
2013-8-16,78.4,67.0,56.1,57.4,32.5,-99.9,87,55,40,30.16,30.10,1,0,8,0.00
2013-8-17,78.8,65.0,56.1,59.3,48.2,-99.9,94,64,43,30.19,30.11,2,-22,3,0.00
2013-8-18,82.0,69.0,57.5,63.3,54.7,-99.9,89,67,43,30.17,30.06,2,-196,6,0.00
2013-8-19,86.1,73.3,62.0,65.9,46.5,-99.9,86,60,47,30.09,29.99,157,-113,157,0.00
2013-8-20,85.1,72.9,69.7,67.4,64.1,63.1,80,75,52,30.05,29.99,3,0,5,0.00
2013-8-21,86.8,77.3,68.0,78.6,49.5,-99.9,85,66,71,30.03,29.98,4,-736,7,0.00
2013-8-22,80.5,73.7,71.4,70.6,27.5,-99.9,81,58,70,30.07,29.97,5,-724,6,0.00
2013-8-23,82.8,52.2,64.2,66.8,-12.8,-99.9,96,35,52,30.11,30.04,1,-191,2,0.00
2013-8-24,86.1,70.9,63.6,71.4,51.0,-99.9,80,66,53,30.18,30.09,2,-324,7,0.00
2013-8-25,91.0,78.1,69.0,69.7,65.6,62.6,81,67,43,30.21,30.10,4,-658,10,0.00
2013-8-26,93.4,57.8,66.8,71.5,10.8,-99.9,85,45,44,30.12,29.95,4,-569,10,0.00
2013-8-27,94.8,60.7,71.7,73.3,4.7,-99.9,88,40,42,30.00,29.84,6,-606,13,0.00
2013-8-28,94.1,32.7,72.4,73.9,-47.0,-99.9,55,16,49,29.98,29.85,4,-394,10,0.00
2013-8-29,88.4,44.0,72.9,78.1,-24.3,-99.9,84,32,61,30.02,29.90,2,-111,6,0.00
2013-8-30,89.9,0.6,89.9,-99.9,-99.9,-99.9,0,0,100,29.91,29.73,5,1,10,0.00
2013-8-31,72.6,1.6,72.2,-99.9,-99.9,-99.9,0,0,100,29.80,29.74,2,-312,7,0.00
2013-9-1,72.2,16.2,66.5,66.5,-76.1,-99.9,91,12,68,29.85,29.72,157,-595,157,0.00
2013-9-2,-200.0,0.0,200.0,-99.9,-99.9,-99.9,0,0,100,29.99,29.85,3,-28,8,0.00
2013-9-3,-200.0,0.0,200.0,-99.9,-99.9,-99.9,0,0,100,30.08,29.99,2,-27,5,0.00
2013-9-4,-200.0,0.0,200.0,-99.9,-99.9,-99.9,0,0,100,30.13,30.03,2,-5,6,0.00
2013-9-5,-200.0,0.0,200.0,-99.9,-99.9,-99.9,0,0,100,30.18,30.10,2,-70,8,0.00
2013-9-6,-200.0,0.0,200.0,-99.9,-99.9,-99.9,0,0,100,30.16,29.98,6,-38,8,0.00
2013-9-7,-200.0,0.0,200.0,-99.9,-99.9,-99.9,0,0,100,29.99,29.86,5,-221,10,0.00
2013-9-8,-200.0,0.0,200.0,-99.9,-99.9,-99.9,0,0,100,29.94,29.85,1,0,7,0.00
2013-9-9,-200.0,0.0,200.0,-99.9,-99.9,-99.9,0,0,100,29.90,29.82,1,-340,3,0.00
2013-9-10,-200.0,0.0,200.0,-99.9,-99.9,-99.9,0,0,100,30.02,29.90,5,-71,10,0.00
2013-9-12,73.6,24.8,68.7,47.9,-52.4,-99.9,47,14,36,30.09,30.00,0,-250,0,0.00
2013-9-13,71.5,3.4,55.4,35.2,-98.5,-99.9,28,0,26,30.19,30.06,6,-48,8,0.00
2013-9-14,-200.0,0.0,200.0,-99.9,-99.9,-99.9,0,0,100,30.17,29.98,2,-48,5,0.00
2013-9-15,59.3,0.6,59.3,-99.9,-99.9,-99.9,0,0,100,30.15,29.94,4,1,8,0.00
2013-9-16,66.7,12.0,55.9,48.2,-74.0,-99.9,71,11,56,30.32,30.16,6,-36,16,0.01
2013-9-17,70.7,53.7,51.6,59.3,28.9,-99.9,87,66,63,30.29,30.04,3,0,6,0.00
2013-9-18,84.3,66.5,61.5,71.2,48.1,-99.9,85,68,60,30.04,29.83,6,-229,10,0.00
2013-9-19,89.9,53.1,70.5,69.2,-10.8,-99.9,86,32,43,29.88,29.70,10,-520,11,0.00
2013-9-20,71.2,64.8,57.4,65.1,47.2,-99.9,93,68,47,29.88,29.79,5,-268,10,0.00
2013-9-21,69.3,58.0,49.8,51.2,37.2,-99.9,88,65,44,29.94,29.87,4,-28,11,0.00
2013-9-22,70.5,57.1,51.0,50.3,29.0,-99.9,85,59,40,30.04,29.92,2,-364,6,0.00
2013-9-23,107.7,50.1,48.9,52.2,17.6,-99.9,84,52,39,30.04,29.89,2,-92,7,0.00
2013-9-24,74.7,29.3,52.7,56.1,-57.9,-99.9,70,17,21,29.95,29.82,3,-213,7,0.00
2013-9-25,76.8,16.0,54.5,52.9,-87.8,-99.9,82,6,59,29.91,29.82,4,-155,5,0.00
2013-9-26,80.3,47.8,57.0,60.4,-25.9,-99.9,80,30,44,29.99,29.90,6,-70,7,0.00
2013-9-27,80.5,58.5,59.0,60.4,12.5,-99.9,71,43,36,30.07,29.95,7,-156,7,0.00
2013-9-28,79.2,47.4,58.1,66.6,-11.1,-99.9,86,40,53,29.98,29.86,11,-80,16,0.00
2013-9-29,70.2,36.9,52.6,54.2,-26.0,-99.9,91,36,33,30.05,29.96,8,-107,10,0.00
2013-9-30,75.0,47.7,51.1,55.8,-1.4,-99.9,85,44,39,29.98,29.82,10,-22,10,0.00
2013-10-1,81.0,45.7,59.9,65.0,-22.3,-99.9,95,37,48,29.94,29.83,12,-80,13,0.00
2013-10-2,80.1,70.3,62.9,65.6,59.9,-99.9,96,76,53,30.02,29.90,117,-176,117,0.00
2013-10-3,79.0,70.8,65.8,70.2,57.2,-99.9,96,80,63,29.90,29.76,6,-707,12,0.00
2013-10-4,82.8,73.1,65.8,69.8,66.4,61.8,95,81,60,29.90,29.82,4,-231,10,0.00
2013-10-5,74.5,68.9,55.1,69.0,62.2,-99.9,93,82,65,29.84,29.76,5,-26,10,0.00
2013-10-6,55.0,49.7,45.6,49.3,41.1,-99.9,90,75,56,29.82,29.75,6,1,11,0.00
2013-10-7,68.8,55.8,45.6,48.3,45.4,42.5,94,72,40,30.01,29.82,4,-20,11,0.00
2013-10-11,76.5,67.2,56.6,59.1,46.7,-99.9,93,64,47,29.94,29.78,6,-55,12,0.00
2013-10-12,70.4,65.0,59.8,59.1,49.6,35.2,85,61,30,30.05,29.80,5,-205,14,0.00
2013-10-18,52.9,46.3,41.6,40.5,38.0,36.5,92,74,56,30.02,29.89,3,1,4,0.00
2013-10-19,55.7,49.3,35.0,39.7,36.2,32.3,91,62,44,29.98,29.82,10,2,12,0.00
2013-10-20,67.8,52.4,40.4,48.0,41.2,36.8,88,68,37,29.86,29.70,4,1,10,0.00
2013-10-21,55.4,43.3,32.0,47.1,32.1,23.5,89,66,41,30.02,29.83,4,1,12,0.07
2013-10-22,39.7,36.2,31.4,37.8,32.8,26.0,95,88,75,30.02,29.85,5,1,10,0.28
2013-10-23,44.9,35.7,28.1,36.2,31.2,26.1,94,84,55,30.09,30.00,3,1,5,0.00
2013-10-24,41.6,35.9,28.1,34.5,25.2,22.1,90,66,48,30.38,30.09,4,1,8,0.00
2013-10-25,53.4,39.4,25.5,35.2,26.3,22.9,92,64,32,30.45,30.10,3,1,8,0.00
2013-10-26,55.5,45.4,33.1,37.0,30.1,26.1,80,56,38,30.13,29.95,4,2,6,0.00
2013-10-27,56.3,42.4,28.0,34.9,29.2,24.6,88,63,36,30.11,29.97,3,1,10,0.00
2013-10-28,60.9,45.7,35.2,39.3,33.4,29.8,82,65,35,30.30,30.05,6,1,9,0.00
2013-10-29,54.2,48.1,38.4,49.5,42.4,35.4,94,81,56,30.30,30.08,9,3,10,0.00
2013-10-30,62.9,56.2,51.2,62.0,55.1,49.5,97,96,94,30.08,29.73,9,2,12,1.21
2013-10-31,63.0,58.4,43.6,62.0,56.9,41.8,97,95,90,29.73,29.32,17,4,17,0.62
2013-11-1,50.3,45.5,41.0,45.1,42.7,38.6,96,90,78,29.79,29.49,8,3,14,0.01
2013-11-2,51.2,45.4,32.1,39.6,35.9,30.0,95,71,54,30.17,29.79,19,4,19,0.00
2013-11-3,53.8,42.1,29.2,37.4,32.4,27.8,95,71,47,30.28,30.14,6,3,12,0.00
2013-11-4,56.1,50.1,44.3,44.6,40.2,35.4,77,69,56,30.16,30.04,10,5,24,0.00
2013-11-5,54.5,52.5,50.9,52.0,49.0,44.5,94,88,75,30.21,29.89,8,4,17,0.11
2013-11-6,56.0,43.9,29.6,54.9,40.7,26.8,96,89,76,30.25,29.80,11,6,17,0.33
2013-11-7,45.2,34.3,26.6,38.5,29.8,24.3,93,84,68,30.32,30.25,10,3,17,0.00
2013-11-8,48.6,39.8,26.4,35.6,30.7,24.4,93,71,53,30.34,29.92,9,4,20,0.01
2013-11-9,60.3,50.0,40.1,41.0,37.5,33.4,80,63,45,30.22,29.91,13,6,23,0.00
2013-11-10,48.5,39.4,28.5,33.8,30.4,25.4,88,71,51,30.42,30.22,5,2,9,0.00
2013-11-11,49.9,39.3,23.1,38.7,31.1,17.3,93,73,59,30.58,30.11,8,3,12,0.02
2013-11-12,30.9,22.5,15.0,21.3,16.0,11.2,85,76,62,30.80,30.59,7,1,11,0.13
2013-11-13,42.4,31.5,17.0,22.6,17.7,13.1,86,58,35,30.68,30.20,11,6,18,0.00
2013-11-14,52.7,38.7,30.3,28.4,22.6,18.2,68,53,36,30.20,29.96,10,5,16,0.00
2013-11-15,49.4,41.4,33.9,36.3,30.3,21.7,81,65,52,29.99,29.87,7,4,12,0.00
2013-11-16,58.3,52.0,39.8,54.8,48.6,35.6,92,88,82,29.88,29.52,12,7,18,0.07
2013-11-17,67.5,50.5,42.1,62.5,46.0,37.9,94,85,77,29.88,29.15,18,8,36,0.19
2013-11-18,45.7,38.2,26.6,38.1,31.8,24.1,91,79,58,30.31,29.88,12,6,21,0.00
2013-11-19,45.7,34.8,25.2,29.5,26.5,23.2,93,73,48,30.37,30.21,7,3,14,0.00
2013-11-20,40.6,36.3,32.9,37.6,32.0,27.9,93,84,74,30.23,30.01,11,5,16,0.26
2013-11-21,47.4,43.4,39.9,43.4,40.0,37.6,92,88,83,30.26,30.07,4,2,9,0.02
2013-11-22,39.9,32.7,20.7,38.0,29.3,18.2,94,87,74,30.56,30.25,7,4,13,0.03
2013-11-23,23.2,19.3,10.5,18.5,12.4,5.8,91,75,56,30.80,30.54,9,5,17,0.00
2013-11-24,28.1,17.8,7.2,12.6,7.9,3.9,88,67,36,30.81,30.40,8,3,12,0.00
2013-11-25,34.6,28.8,21.6,25.8,20.0,12.3,85,69,59,30.40,30.14,10,6,19,0.00
2013-11-26,32.3,27.6,15.7,26.2,20.1,7.5,88,74,49,30.29,30.10,11,5,21,0.00
2013-11-27,27.9,18.4,9.1,11.6,8.7,4.5,82,66,48,30.38,30.25,7,-3,10,0.00
2013-11-28,37.1,26.1,16.8,20.6,15.6,9.8,86,65,50,30.54,30.19,8,4,14,0.00
2013-11-29,36.0,26.3,14.3,23.1,17.6,11.8,92,71,50,30.64,30.38,6,2,11,0.00
2013-11-30,51.0,37.1,28.4,34.7,29.1,22.9,91,74,52,30.38,30.07,9,4,13,0.00
2013-12-1,47.1,36.1,27.0,32.8,29.3,25.2,94,78,56,30.14,29.97,4,2,8,0.00
2013-12-2,44.6,38.2,33.2,36.9,32.8,28.1,92,81,68,29.96,29.66,7,4,9,0.00
2013-12-3,49.4,42.7,37.0,48.0,41.4,35.3,97,95,92,29.68,29.58,6,3,11,0.00
2013-12-4,52.4,40.8,28.6,51.9,39.1,25.2,98,93,87,29.83,29.48,20,6,24,0.02
2013-12-5,28.5,20.9,17.0,25.4,14.4,10.3,88,76,66,30.36,29.83,12,8,20,0.00
2013-12-6,17.5,14.4,8.2,10.7,7.0,3.6,82,72,60,30.66,30.34,8,5,13,0.00
2013-12-7,18.1,9.9,2.4,5.9,2.1,-1.3,85,71,47,30.80,30.60,5,3,9,0.00
2013-12-8,22.3,19.2,12.6,20.3,14.7,4.5,92,83,69,30.60,30.04,8,4,15,0.00
2013-12-9,21.9,12.0,0.5,19.4,7.1,-3.3,90,81,65,30.33,30.05,10,5,18,0.00
2013-12-10,23.6,14.7,0.5,13.5,6.5,-3.4,84,70,59,30.35,30.12,12,5,17,0.00
2013-12-11,20.9,12.8,-0.7,14.5,5.2,-7.2,86,71,56,30.68,30.28,10,4,15,0.00
2013-12-12,28.3,15.4,0.6,17.3,8.2,-4.8,86,73,62,30.64,30.26,8,3,14,0.00
2013-12-13,36.4,26.5,15.4,28.9,21.7,12.2,95,82,64,30.26,30.03,5,2,6,0.00
2013-12-14,30.1,25.9,14.2,28.6,23.6,11.3,94,91,85,30.12,29.96,7,4,10,0.00
2013-12-15,17.3,13.9,8.9,12.4,9.5,5.1,88,82,73,30.18,30.10,7,3,10,0.00
2013-12-16,21.2,16.9,12.3,19.5,13.8,9.1,94,87,82,30.17,30.05,7,3,10,0.00
2013-12-17,35.4,24.9,15.3,28.9,20.3,12.3,94,83,67,30.24,30.10,10,5,17,0.03
2013-12-18,39.8,27.5,12.7,30.8,19.4,9.4,87,72,47,30.23,29.86,10,4,17,0.00
2013-12-19,46.2,39.4,34.5,40.8,34.8,30.5,95,84,74,29.89,29.73,6,3,8,0.00
2013-12-20,41.4,32.0,27.4,40.1,30.7,25.9,96,95,94,29.88,29.72,9,4,17,0.10
2013-12-21,30.0,27.5,25.8,28.7,26.0,24.3,96,94,91,29.89,29.65,9,4,12,0.00
2013-12-22,30.5,26.0,14.0,29.2,23.7,10.8,95,91,86,30.26,29.65,7,4,12,0.00
2013-12-23,16.6,5.5,-2.8,13.7,1.1,-7.9,88,81,75,30.60,30.27,8,5,13,0.00
2013-12-24,19.0,5.3,-8.0,13.0,0.3,-12.3,87,79,67,30.66,30.38,6,3,16,0.00
2013-12-25,27.9,24.6,19.0,25.0,21.2,13.0,94,87,77,30.37,30.20,9,6,18,0.00
2013-12-26,35.5,26.7,15.0,31.0,22.8,12.6,94,85,71,30.33,30.17,8,4,16,0.08
2013-12-27,39.3,31.7,21.3,32.7,27.6,19.8,95,85,76,30.33,30.16,7,3,12,0.12
2013-12-28,47.1,39.3,32.9,35.6,32.3,28.9,89,77,63,30.16,29.84,8,4,11,0.05
2013-12-29,36.3,21.4,1.6,30.1,17.2,-4.8,92,84,73,30.33,29.83,12,8,19,0.00
2013-12-30,12.7,4.5,-3.1,9.6,-1.1,-8.5,88,77,60,30.40,30.25,5,2,7,0.00
2013-12-31,18.9,11.8,3.8,12.6,7.7,0.8,90,84,75,30.44,30.27,8,3,14,0.00
2014-1-1,16.4,14.0,11.6,13.5,10.6,7.9,89,86,84,30.28,30.21,11,7,16,0.00
2014-1-2,16.1,9.7,-2.5,8.7,4.7,-6.1,86,80,71,30.52,30.24,8,4,14,0.00